Location: Rounton
(54.4000°N, 1.3500°W)
Time: 10:53:52
(UTC+01:00)

deb r/b Ablestar - Pass Details

Date: 03 July 2022
Orbit: 680 x 853 km, 66.7° (Epoch: 16 August)

Event Time Altitude Azimuth Distance (km) Brightness Sun altitude
Rises 03:30:08 0° 171° (S) 3,365 ? -7.0°
Reaches altitude 10° 03:33:05 10° 156° (SSE) 2,455 ? -6.7°
Maximum altitude 03:37:17 22° 109° (ESE) 1,799 ? -6.4°
Drops below altitude 10° 03:41:31 10° 61° (ENE) 2,492 ? -6.0°
Sets 03:44:31 0° 47° (NE) 3,430 ? -5.8°
